Home   Weather   Kagoshima   Past weeks

Flag for Japan Past Weather in Kagoshima, Japan — Yesterday and Last 2 Weeks

Now
71 °F

Mild.


Feels Like: 75 °F
Forecast: 57 / 74 °F
Wind: 15 mph from Northwest

Location: Kagoshima

Current Time: Apr 28, 2017 at 5:38:18 pm

Latest Report: Apr 28, 2017 at 4:00 pm


Visibility: N/A

Pressure: 29.80 "Hg

Humidity: 25%

Dew Point: 34 °F

Location of KagoshimaLocation

Past Weather in Kagoshima — Graph

°F

Kagoshima Temperature Yesterday

Maximum temperature yesterday: 69 °F (at 12:00 pm)
Minimum temperature yesterday: 58 °F (at 11:00 pm)
Average temperature yesterday: 63 °F

High & Low Weather Summary for the Past Weeks

 TemperatureHumidityPressure
High76 °F (Apr 15, 3:00 pm)100% (Apr 16, 4:00 am)30.19 "Hg (Apr 16, 4:00 am)
Low51 °F (Apr 14, 6:00 am)25% (Apr 28, 1:00 pm)29.50 "Hg (Apr 17, 7:00 pm)
Average65 °F73%29.92 "Hg
* Reported Apr 13 4:00 pm — Apr 28 4:00 pm, Kagoshima, Weather by CustomWeather, © 2017

Note: Actual official high and low records may vary slightly from our data, if they occured in-between our weather recording intervals... More about our weather records

Advertising

Kagoshima Weather History for the Previous 24 Hours

Scroll right to see more
 ConditionsComfort  
Time TempWeatherWind HumidityBarometerVisibility
4:00 pm
Fri, Apr 28
71 °FMild.15 mph25%29.80 "HgN/A
3:00 pm72 °FPassing clouds.18 mph25%29.81 "Hg31 mi
2:00 pm74 °FMild.12 mph26%29.81 "HgN/A
1:00 pm72 °FMild.13 mph25%29.84 "HgN/A
12:00 pm71 °FPassing clouds.13 mph28%29.86 "Hg25 mi
11:00 am69 °FMild.10 mph29%29.88 "HgN/A
10:00 am67 °FMild.5 mph34%29.90 "HgN/A
9:00 am64 °FPassing clouds.7 mph49%29.89 "Hg19 mi
8:00 am58 °FCool.6 mph60%29.90 "HgN/A
7:00 am54 °FCool.7 mph74%29.88 "HgN/A
6:00 am52 °FPassing clouds.6 mph75%29.88 "Hg12 mi
5:00 am53 °FCool.6 mph73%29.87 "HgN/A
4:00 am53 °FCool.8 mph72%29.86 "HgN/A
3:00 am55 °FPassing clouds.7 mph65%29.87 "Hg12 mi
2:00 am56 °FCool.6 mph70%29.87 "HgN/A
1:00 am57 °FCool.6 mph65%29.88 "HgN/A
12:00 am58 °FCool.9 mph64%29.88 "HgN/A
11:00 pm
Thu, Apr 27
58 °FCool.8 mph64%29.88 "HgN/A
10:00 pm59 °FCool.7 mph64%29.88 "HgN/A
9:00 pm60 °FOvercast.12 mph62%29.86 "Hg12 mi
8:00 pm61 °FCool.10 mph64%29.84 "HgN/A
7:00 pm62 °FCool.14 mph63%29.82 "HgN/A
6:00 pm64 °FOvercast.8 mph65%29.81 "Hg12 mi
5:00 pm67 °FMild.12 mph66%29.80 "HgN/A
Weather by CustomWeather, © 2017

See weather overviewHow to use our weather pages